Location: Dampvalley
(47.9094°N, 6.1967°E)
Time: 07:23:18
(UTC+00:00)

SL-08 ROCKET BODY - Pass Details

Date: 05 March 2021
Orbit: 897 x 962 km, 83.0° (Epoch: 18 April)

Event Time Altitude Azimuth Distance (km) Brightness Sun altitude
Rises 03:25:59 0° 349° (N) 3,619 7.6 -27.5°
Reaches altitude 10° 03:28:29 10° 347° (NNW) 2,679 6.9 -27.1°
Maximum altitude 03:34:34 71° 265° (W) 1,010 4.3 -26.2°
Enters shadow 03:35:40 58° 210° (SSW) 1,104 4.5 -26.0°
